Theta_e
291 292 290 292 292 291 292 292 292 292 293 292 289 289 293 292 288 286 291 290 289 292 295 293 292 292 292 292 292 292 292 290 289 290 290 291 291 291 290 291 291 292 292 293 293 292 291 288 289 289 289 289 288 289 289 290 289 291 288 291 293 295 295 296 296 295 294 294 295 296 296 298 299 298 298 296 295 297 297 300 303 304 306 309 308 306 303
290 291 291 291 292 292 292 291 292 293 293 293 293 292 293 293 290 293 293 292 290 294 295 296 295 293 293 292 290 288 288 289 288 290 290 291 291 291 292 293 293 293 293 293 293 292 288 290 290 290 290 291 291 292 292 290 290 292 288 292 295 296 296 296 295 294 294 293 294 294 295 297 296 295 295 294 294 295 296 295 296 297 299 300 301 301 303
287 290 291 291 291 291 289 291 293 293 294 294 294 294 294 293 293 293 293 292 291 296 298 294 292 295 295 292 292 293 291 289 288 289 290 291 292 292 292 293 293 293 292 292 292 291 291 291 291 292 293 293 291 291 292 292 293 293 291 293 294 295 297 295 294 294 294 292 291 293 293 293 293 293 293 292 292 293 293 293 294 294 294 297 297 298 299
285 288 288 289 290 289 289 289 291 291 292 290 292 291 294 292 291 292 292 290 290 296 300 292 292 292 294 295 297 297 296 292 289 291 292 292 292 292 293 294 295 292 291 292 293 293 293 292 292 292 292 291 290 292 292 293 293 291 292 293 295 295 296 295 294 294 292 292 291 290 290 291 291 291 291 291 291 292 291 292 292 292 293 295 295 294 295
284 288 289 288 288 287 284 285 290 292 293 294 295 296 296 295 295 291 289 290 296 299 295 293 295 294 292 294 296 296 297 298 297 297 298 298 293 294 296 297 297 295 293 293 294 295 294 294 293 293 293 291 292 293 293 293 292 293 294 295 296 296 295 294 293 292 292 292 292 290 289 289 288 289 290 290 290 291 291 290 289 291 292 292 292 292 292
285 287 286 288 284 278 279 292 295 295 292 293 292 292 294 296 297 295 297 297 299 299 299 297 297 296 294 295 296 298 299 298 298 298 297 296 296 295 297 298 297 295 294 293 294 295 296 295 295 295 292 294 295 293 292 291 293 295 296 296 296 295 293 293 293 292 291 291 291 291 289 288 288 288 289 290 289 288 288 288 289 290 290 290 290 290 291
283 284 285 282 276 278 292 295 296 297 297 296 295 295 296 297 298 298 297 298 298 299 299 299 299 299 299 296 296 296 297 300 300 298 296 294 294 295 295 295 294 294 294 293 293 293 293 294 292 290 291 293 290 289 290 292 293 295 296 296 295 294 293 292 292 292 291 290 290 290 289 288 288 288 288 288 288 288 288 288 289 289 289 289 290 290 290
286 283 283 276 278 287 291 294 296 297 298 297 296 293 296 298 298 298 297 298 300 300 300 300 301 297 293 290 293 297 299 298 299 298 297 295 294 293 295 295 296 294 293 293 293 294 295 294 291 292 294 293 291 290 288 291 292 294 295 295 294 293 292 292 292 291 291 290 290 289 288 288 288 288 288 288 288 287 288 288 287 288 288 288 289 288 288
279 282 282 282 288 286 287 288 289 293 292 293 292 288 292 298 299 298 298 298 300 300 300 301 293 288 290 292 298 299 295 296 297 300 300 301 299 297 297 297 298 297 295 295 295 295 294 295 293 293 293 291 292 289 289 289 290 291 292 292 293 292 292 292 291 291 290 290 289 288 288 288 288 288 287 287 287 287 288 288 288 288 288 287 288 288 288
284 279 278 281 282 279 284 290 291 298 299 298 298 294 291 298 299 300 299 298 299 299 300 299 290 291 289 294 296 299 296 298 300 299 300 301 301 301 300 298 297 296 294 294 293 294 295 294 294 294 291 291 291 290 289 289 290 290 291 292 292 291 291 291 290 290 290 290 289 288 287 288 288 288 287 287 287 287 288 288 288 287 287 287 287 287 287
282 280 277 278 278 281 288 290 293 296 296 296 295 289 287 295 297 300 299 298 300 299 299 291 293 293 291 293 298 295 298 298 300 300 299 299 300 300 299 297 297 295 294 294 294 293 293 293 293 291 290 290 291 290 289 288 289 290 290 291 291 291 291 290 290 289 289 289 289 288 288 288 288 287 287 287 286 287 287 287 287 287 287 287 286 286 286
278 277 276 274 281 282 285 287 289 293 296 298 294 282 283 296 298 299 299 299 299 299 294 293 295 295 292 294 298 293 296 299 299 300 300 300 298 298 298 296 296 296 294 292 289 291 292 294 294 290 290 291 291 291 289 289 289 290 290 291 291 290 290 290 290 289 289 288 288 288 288 287 287 287 287 287 287 287 287 287 287 287 287 287 286 286 286
279 279 276 279 280 285 288 288 289 292 297 295 285 280 290 294 299 299 299 299 300 299 295 295 295 298 300 302 294 293 293 294 297 299 300 301 301 300 300 298 292 293 293 294 295 294 295 296 292 290 290 291 291 291 289 288 289 290 290 289 290 290 290 290 289 289 289 289 288 288 288 287 287 287 287 287 287 287 287 286 286 286 286 286 286 285 285
277 278 276 276 281 286 289 288 291 293 292 284 283 295 296 293 294 298 299 299 299 299 299 298 299 301 302 301 302 294 290 295 298 298 298 298 298 300 299 297 293 293 292 292 294 294 294 293 291 290 291 292 292 290 289 289 290 288 288 290 290 290 290 289 289 288 288 288 288 288 287 287 286 286 287 287 287 287 287 287 286 286 286 286 286 285 285
281 279 276 276 273 283 291 289 288 291 288 288 297 297 292 293 291 293 294 298 298 298 298 299 299 300 299 300 300 300 297 293 296 297 295 296 297 298 297 293 290 293 292 292 293 294 293 289 289 290 290 291 291 290 289 291 288 287 289 290 290 289 289 289 288 287 287 287 287 287 287 287 287 286 286 286 286 286 286 286 286 285 285 285 285 284 284
276 277 275 275 282 288 291 293 286 290 295 296 295 294 294 296 290 290 292 293 296 298 298 297 298 298 298 298 298 298 298 295 295 296 294 293 296 297 297 298 295 291 294 294 293 292 289 288 289 289 290 291 291 289 290 286 287 288 289 289 289 289 288 288 287 287 287 287 287 287 287 287 287 286 286 286 286 286 286 286 286 285 285 285 285 284 284
280 278 281 286 288 288 291 293 293 296 298 298 294 293 295 296 294 290 290 293 294 294 295 296 296 295 295 296 298 297 298 298 296 296 297 294 294 295 296 295 293 291 293 293 293 291 288 287 288 288 290 292 290 290 288 285 287 288 288 288 288 288 288 287 287 287 287 287 287 287 286 287 286 286 285 286 285 285 286 286 286 285 285 285 285 284 284
283 285 285 287 288 289 288 289 290 295 297 297 295 294 293 292 294 290 291 290 291 292 293 294 293 294 295 295 295 296 297 296 294 295 296 293 292 293 293 293 291 290 291 292 291 290 287 285 286 287 288 289 290 290 285 286 287 288 288 288 288 287 287 287 287 287 286 286 286 286 286 287 287 287 286 286 286 285 286 286 286 285 284 285 285 284 284
282 278 284 286 288 290 290 290 291 291 290 292 293 295 296 296 294 290 288 289 290 292 292 292 293 294 293 293 295 295 294 292 293 295 295 294 293 293 293 293 291 289 289 289 289 289 289 285 285 286 287 287 287 285 285 287 287 288 288 288 288 287 287 287 287 287 286 286 286 286 286 286 286 286 286 286 286 285 286 285 285 285 285 284 284 284 284
282 281 284 286 288 290 291 291 288 289 293 294 294 293 295 296 291 289 291 287 287 287 289 291 291 291 293 292 293 293 293 294 294 295 295 294 293 292 293 293 290 290 289 290 290 289 289 287 285 285 285 286 283 284 286 287 287 288 288 288 287 287 287 287 287 287 287 285 285 286 286 286 286 285 286 286 286 285 286 286 285 285 284 284 284 284 284
284 285 286 286 286 286 288 289 287 291 294 294 294 295 294 293 288 289 288 288 292 293 293 294 292 291 291 291 292 292 293 293 293 294 295 294 293 293 291 289 288 289 289 289 290 289 289 286 285 284 284 283 281 284 286 287 287 288 288 287 287 287 287 287 287 287 287 286 286 286 286 286 286 286 286 286 286 286 287 287 287 286 285 285 286 286 286
281 282 285 287 283 284 288 290 291 290 292 293 293 293 292 290 289 291 291 292 291 290 292 292 293 292 294 295 295 292 292 293 294 294 293 291 290 290 290 289 288 288 289 290 289 288 288 285 285 285 283 282 281 284 286 287 287 288 287 287 287 287 287 287 286 286 286 286 286 286 285 285 284 283 283 286 286 286 285 285 286 286 287 286 286 286 285
281 286 288 289 289 289 290 291 291 291 290 291 292 292 293 293 293 293 294 294 294 293 291 290 289 291 294 295 296 292 291 293 293 292 290 289 289 289 286 286 285 286 287 287 287 287 285 283 284 284 283 281 281 283 286 287 287 288 287 287 287 287 286 287 286 286 286 286 285 285 285 284 283 282 281 281 284 285 285 284 285 285 286 286 286 286 286
287 288 289 289 288 287 290 291 292 292 289 290 291 292 293 294 294 294 294 294 294 294 294 293 291 290 291 292 292 290 291 291 290 290 289 289 289 288 286 287 287 286 285 284 285 286 283 282 283 282 282 281 282 283 285 286 287 287 287 287 287 287 287 286 285 285 286 285 284 284 284 283 282 281 281 279 278 281 283 284 284 284 285 285 285 286 286
286 289 289 289 289 290 291 291 292 290 286 289 291 292 293 293 294 294 293 293 293 292 293 294 294 293 290 291 290 289 290 290 289 288 287 287 286 286 285 285 286 286 287 287 286 284 282 282 282 281 282 281 281 282 284 286 287 287 287 287 287 286 286 285 285 284 284 284 283 284 283 282 281 281 281 280 279 278 278 283 284 284 284 285 285 285 285
289 289 289 288 288 289 290 290 290 290 287 288 290 292 293 292 294 293 293 293 294 294 293 293 293 294 293 291 290 287 285 287 285 283 284 285 284 284 284 286 287 287 285 284 283 282 281 281 281 281 281 280 280 281 283 285 286 286 286 286 286 286 285 285 284 284 284 283 283 283 283 283 282 282 282 281 280 278 276 276 276 279 281 283 284 284 285
288 289 288 287 287 288 290 289 289 292 289 288 290 292 294 294 292 293 294 294 293 294 294 293 293 293 291 287 287 286 287 284 280 282 284 284 284 286 287 285 283 283 282 282 281 281 280 280 280 281 282 281 280 280 281 282 284 285 285 284 284 281 279 281 284 284 284 283 283 282 282 281 280 280 280 278 277 276 276 276 276 275 272 273 280 283 280
288 288 288 285 285 287 288 290 291 291 292 291 290 290 292 293 293 293 292 291 291 291 291 290 290 289 289 288 286 286 282 283 285 285 284 285 286 284 281 282 281 281 281 281 281 280 279 280 281 281 282 280 279 279 280 282 283 283 283 282 282 282 281 281 282 282 282 282 282 281 281 280 279 278 277 275 275 274 273 272 272 272 269 270 270 276 280
288 288 289 289 289 290 291 291 291 291 291 291 290 291 292 291 291 291 292 293 294 294 293 291 288 288 289 289 286 287 285 284 284 285 286 286 281 279 278 279 279 278 279 279 278 279 280 280 281 281 281 278 276 277 280 281 281 280 279 280 280 280 280 281 281 280 280 279 279 279 278 276 276 275 274 273 272 271 271 271 270 269 269 267 269 270 275
288 289 289 289 289 289 288 289 290 291 291 291 291 290 291 291 291 292 293 293 293 293 293 293 290 287 286 286 286 287 287 286 287 287 284 280 279 278 279 278 278 276 277 278 279 279 280 280 280 281 279 275 275 277 279 280 279 278 278 278 279 279 279 279 279 278 277 277 276 276 276 275 274 273 273 272 272 271 271 270 269 269 267 267 272 269 271
287 288 288 288 289 289 289 289 289 290 290 291 291 291 291 291 291 292 293 293 293 293 292 291 289 288 284 286 287 287 286 286 285 284 281 279 278 279 279 279 282 281 281 281 280 279 280 279 279 280 277 274 275 276 278 279 278 277 276 276 276 276 276 276 276 276 275 274 274 274 273 273 273 273 272 272 271 270 269 269 268 267 267 267 267 268 268
286 286 286 287 287 287 287 288 289 289 290 290 290 289 290 290 290 290 291 291 292 291 291 290 287 287 287 285 284 284 285 283 281 280 279 278 278 278 278 279 277 278 278 278 278 278 279 278 278 277 273 273 274 276 277 277 276 277 276 273 275 275 275 275 275 274 273 273 273 273 272 272 272 272 272 271 271 271 270 269 268 267 267 268 267 267 266
279 281 282 284 285 285 285 287 287 288 289 289 290 291 291 290 291 291 291 291 291 290 288 288 288 286 283 282 282 282 280 279 278 278 277 277 277 277 277 275 273 274 276 277 278 278 278 278 276 271 271 272 273 274 275 275 276 276 275 275 274 274 272 274 273 273 272 272 272 272 272 272 272 272 271 270 269 269 269 269 268 267 267 267 266 264 267
273 279 281 276 276 281 284 285 285 283 284 286 287 288 289 288 288 288 288 288 287 287 288 288 286 284 282 281 281 279 277 277 277 278 278 277 277 276 274 273 272 273 273 273 274 275 274 272 270 270 271 272 273 273 274 274 275 274 274 274 273 273 273 272 273 272 272 271 271 271 271 270 271 271 270 269 269 269 269 268 268 267 267 265 263 263 270
269 270 270 271 271 272 273 273 273 274 275 275 278 281 282 283 285 286 287 287 287 288 287 285 284 282 281 280 279 278 278 281 283 282 279 277 275 272 270 270 269 269 268 269 270 270 270 270 270 270 270 271 272 272 273 273 273 273 273 273 273 273 272 271 272 272 271 270 269 270 270 269 269 268 269 269 269 269 268 268 268 268 268 267 264 265 268
267 267 268 269 269 270 269 269 269 270 271 273 274 276 278 280 282 283 284 285 285 284 283 284 282 281 280 280 279 278 279 280 280 278 276 274 271 270 269 269 269 268 266 265 266 266 267 268 267 268 270 270 270 271 272 273 273 273 272 272 271 270 270 270 270 269 269 269 269 269 269 268 268 268 268 268 268 268 268 267 267 267 267 265 264 264 262
266 266 266 267 267 268 268 268 268 269 269 270 271 273 274 276 278 279 278 277 278 280 281 281 281 281 281 281 279 276 275 274 274 274 273 271 270 269 269 269 269 268 267 265 265 266 266 267 266 267 269 270 270 270 269 268 271 271 271 271 270 269 269 268 268 268 267 268 268 268 268 268 267 267 267 268 267 267 267 266 265 265 264 263 263 262 262
266 266 265 265 266 266 266 267 268 269 269 269 270 272 272 272 273 273 274 274 274 275 276 279 280 282 279 276 275 274 271 269 271 270 270 269 271 269 269 268 268 269 268 266 266 265 266 266 266 268 269 269 269 269 268 267 268 270 270 270 269 269 268 268 267 267 267 267 267 268 268 268 267 266 266 265 265 266 265 265 264 264 262 262 261 261 261
265 266 266 265 265 265 266 266 267 267 267 267 267 269 271 272 272 272 272 272 271 272 274 275 275 276 276 276 274 271 270 269 270 270 269 269 271 271 268 264 264 265 265 264 264 265 265 266 266 267 267 267 267 267 266 266 267 270 269 269 269 268 268 267 267 266 266 266 266 266 266 266 266 265 265 264 264 264 264 264 263 262 262 261 261 260 260
263 264 264 265 264 265 264 265 266 266 265 266 266 266 268 269 270 270 270 270 270 271 273 274 276 277 275 274 271 269 269 269 270 270 269 267 265 262 262 262 262 263 264 264 265 265 264 264 265 266 266 266 267 267 267 266 267 268 268 268 268 267 267 266 266 265 265 265 265 264 264 264 264 264 263 263 264 264 264 264 264 263 262 262 262 262 262
262 263 264 264 264 263 263 264 264 265 264 263 264 265 267 267 269 270 270 270 271 272 272 273 276 275 274 272 270 268 267 267 267 267 266 266 266 266 263 259 261 262 263 264 264 264 264 264 266 266 266 266 266 265 266 265 267 267 267 267 266 266 265 265 265 265 265 265 265 265 264 264 264 264 264 264 264 264 264 265 264 264 264 264 264 264 264
262 262 263 263 263 263 262 263 263 263 262 261 261 263 265 267 268 268 269 270 270 270 270 270 270 271 269 268 267 266 265 265 266 266 266 267 267 265 260 259 261 261 263 262 263 263 264 264 264 264 266 266 265 264 264 266 267 266 266 265 265 265 265 265 264 264 265 265 265 265 265 265 265 264 264 264 265 265 265 265 264 264 264 264 264 264 264
261 261 261 261 262 261 261 261 261 260 260 260 260 261 263 265 266 268 268 269 268 268 268 268 267 267 267 266 265 263 263 262 262 261 260 260 261 263 262 260 260 261 262 262 262 262 262 263 263 264 263 264 265 264 265 266 266 265 265 265 265 265 265 265 265 265 265 265 265 265 265 265 265 265 265 265 265 264 264 264 264 263 263 263 263 263 262
261 261 261 261 261 261 261 260 260 259 259 259 260 261 262 262 263 265 266 267 267 267 267 266 266 266 265 265 264 263 262 262 262 262 260 260 260 261 262 261 262 262 261 262 261 261 262 262 263 263 263 263 264 264 265 265 265 265 265 265 265 265 265 265 265 265 265 265 265 265 265 265 265 265 264 264 263 263 263 263 263 262 262 261 261 261 261
260 261 261 261 261 261 261 260 259 258 259 260 260 260 260 260 260 261 262 262 262 262 263 263 263 263 263 264 263 263 263 263 264 265 262 260 259 259 261 261 261 261 261 261 261 261 261 262 263 263 263 263 264 264 265 265 265 265 265 265 265 265 265 265 264 264 264 264 264 264 264 264 264 264 264 263 263 262 262 262 262 262 261 261 261 260 260
259 260 261 261 260 260 261 261 261 261 260 260 259 259 259 259 259 259 259 259 258 259 259 260 260 261 262 261 261 261 261 260 259 259 261 262 262 260 261 261 261 261 261 261 261 261 261 262 262 262 263 263 263 264 264 264 264 264 264 264 263 263 263 263 263 263 263 263 263 263 263 263 262 262 262 262 262 262 261 261 260 260 260 260 260 260 259
257 258 259 260 260 260 261 261 261 260 260 259 258 258 259 259 259 259 259 260 259 259 259 258 258 258 259 260 262 262 261 259 259 260 260 260 260 260 260 260 260 260 260 260 260 260 261 261 261 262 262 262 262 263 263 263 263 263 262 262 262 262 262 262 262 262 262 261 261 261 261 261 261 261 260 260 260 260 260 260 259 259 259 259 259 259 258
256 257 257 258 259 260 260 260 259 258 258 258 259 259 260 260 260 259 260 259 259 259 258 258 258 258 259 260 259 258 260 261 258 258 260 259 260 260 260 259 259 259 259 259 259 260 260 260 261 261 261 261 262 262 262 262 262 261 261 261 261 261 261 261 261 261 260 260 260 260 260 260 260 260 260 259 259 259 259 259 259 258 258 258 258 257 257
256 256 256 256 256 257 257 257 257 257 257 258 259 260 260 260 259 259 259 258 257 257 257 257 257 257 258 258 258 258 258 259 261 259 259 259 259 259 259 259 259 259 259 259 258 259 259 259 260 260 260 260 260 260 260 260 260 260 260 260 260 260 260 260 260 260 260 260 260 259 259 259 259 259 259 259 258 258 258 258 258 258 257 257 257 257 257
257 256 255 254 254 254 254 255 255 255 256 258 258 259 260 260 259 259 259 258 257 257 256 256 256 256 257 257 258 257 258 258 258 258 258 258 258 258 258 258 258 258 258 258 258 258 258 258 258 258 259 259 259 259 259 259 259 259 259 259 259 259 259 259 259 259 259 259 259 258 258 258 258 258 258 258 258 258 258 258 257 257 258 257 257 257 256
256 256 255 255 255 254 254 254 254 255 255 256 257 259 259 258 257 256 257 259 259 257 256 256 255 255 256 256 256 257 258 258 258 258 257 257 257 257 257 257 257 257 257 257 257 257 257 257 258 258 258 258 258 258 258 258 258 258 258 258 258 258 258 258 258 258 258 258 258 258 258 258 258 257 257 257 257 257 257 257 257 257 256 256 256 256 256
256 256 257 257 257 256 255 254 254 254 254 255 255 256 258 257 256 255 255 256 256 256 256 256 254 254 255 255 256 256 256 256 257 256 257 257 257 257 257 257 257 256 256 256 256 256 256 256 256 256 257 257 257 257 257 257 257 257 257 257 257 257 257 257 257 257 257 257 257 257 257 257 257 257 257 257 257 257 256 256 256 256 256 255 255 255 255
Wind_Speed
18 17 8 9 8 10 10 12 13 14 14 14 16 18 17 14 14 16 15 15 17 22 19 10 12 11 10 11 9 8 7 3 2 1 4 7 9 8 7 9 8 8 9 9 8 7 8 5 7 7 6 6 5 5 5 5 4 6 5 5 5 5 4 5 5 4 3 3 2 2 2 2 1 2 3 3 3 2 3 5 5 5 5 6 8 7 4
19 19 17 8 10 8 10 13 16 17 16 17 17 17 19 16 12 12 16 10 17 20 22 13 10 6 7 6 3 0 2 5 5 6 7 7 8 9 11 12 11 11 11 9 8 7 6 7 8 7 7 7 8 8 8 6 6 6 6 6 6 5 6 5 4 4 4 3 3 3 3 4 4 3 2 3 4 4 4 4 4 4 4 2 1 3 5
17 16 16 13 12 12 13 11 14 16 16 16 17 16 16 14 14 13 15 18 19 19 20 4 5 9 7 5 6 10 9 6 5 6 7 9 11 11 10 9 10 10 8 8 7 6 8 8 9 9 9 8 6 7 7 7 8 7 7 6 6 6 6 5 4 4 4 3 3 3 3 2 3 3 3 3 4 4 4 4 4 4 4 4 5 5 5
12 10 14 14 13 13 15 15 14 15 16 17 16 16 18 17 20 21 22 18 16 19 25 4 7 7 11 14 16 13 9 6 6 9 13 13 10 9 9 10 10 8 9 10 10 11 10 10 9 8 8 7 6 9 8 9 8 6 7 7 7 7 5 5 4 4 4 3 3 3 2 3 3 3 3 3 4 3 3 2 2 2 3 4 4 4 4
15 12 15 17 15 10 13 17 17 19 21 20 20 22 22 21 18 16 16 19 21 28 5 7 13 12 9 12 13 13 15 15 16 19 21 15 9 10 10 12 15 14 13 14 14 13 9 10 10 11 9 7 10 10 10 9 6 8 8 8 7 7 6 6 5 5 5 5 4 4 3 2 2 2 3 3 3 3 4 3 3 3 4 3 4 3 3
11 10 12 12 11 20 18 12 23 24 24 23 21 19 22 23 16 16 18 20 22 20 20 18 20 11 10 13 10 11 15 16 18 19 14 12 12 11 13 16 17 13 10 9 11 12 13 12 12 10 9 12 12 8 7 6 9 9 8 8 8 7 7 7 7 6 6 6 5 5 3 3 2 2 1 3 2 2 2 2 3 2 2 3 2 3 3
2 5 10 11 20 16 6 3 8 20 23 21 23 23 24 22 22 21 21 22 25 31 24 15 17 16 10 6 11 14 16 17 16 16 13 13 14 15 16 16 15 13 13 11 11 9 9 10 8 5 7 9 4 4 6 8 8 9 9 8 8 8 8 7 7 7 6 6 5 5 4 4 3 3 3 2 2 2 3 3 3 3 3 3 2 1 1
2 5 9 9 6 2 1 2 11 15 16 16 14 18 21 23 25 28 30 31 31 28 21 20 20 10 5 5 10 16 18 14 12 11 14 15 14 15 15 16 17 13 12 13 14 15 12 8 7 9 11 9 8 7 5 7 7 7 8 9 9 8 9 8 8 7 7 6 5 5 4 4 4 4 3 4 4 3 2 2 2 3 2 2 3 2 2
4 3 6 10 2 4 2 2 3 10 13 16 19 19 26 28 23 20 20 24 27 26 25 27 3 4 3 7 16 17 7 5 9 16 17 16 15 16 18 16 16 13 14 14 15 11 8 11 10 11 9 8 9 7 7 7 7 7 7 9 10 10 9 8 8 7 7 7 6 6 5 5 5 4 4 4 3 3 3 3 3 3 3 3 3 4 4
4 5 4 3 5 11 4 7 4 15 19 20 20 18 20 14 18 18 21 27 30 32 29 18 4 2 4 15 23 15 12 13 18 17 14 15 16 18 17 13 13 13 11 10 9 9 11 11 13 10 9 10 10 9 9 8 8 8 9 11 9 8 9 8 7 7 7 7 7 6 6 6 6 5 3 3 3 3 4 5 4 4 3 3 3 4 4
1 2 4 4 3 4 2 4 7 9 2 4 7 2 18 12 13 21 23 27 32 30 20 2 7 4 12 20 25 7 19 16 16 18 20 20 19 18 15 15 17 15 13 14 14 11 9 11 12 9 10 11 11 11 9 9 9 10 12 12 10 10 8 7 7 7 7 7 7 7 7 6 6 6 5 5 3 3 3 4 4 3 3 4 3 2 2
5 4 5 7 1 5 3 1 5 1 10 10 10 15 14 22 16 16 20 27 30 23 2 9 10 13 18 27 13 6 8 16 17 19 20 18 17 18 17 13 13 14 12 7 6 8 11 15 14 11 11 11 12 12 11 9 10 12 14 12 8 6 7 8 8 8 8 8 7 7 7 6 5 5 5 5 5 5 4 4 4 3 4 4 5 4 4
9 9 6 3 6 6 14 10 2 1 4 10 13 16 13 2 8 14 14 21 20 10 7 12 15 19 21 22 2 11 5 6 10 17 19 18 19 20 19 16 12 8 9 13 15 16 16 16 10 10 11 12 11 10 10 11 13 16 9 7 8 8 8 9 9 9 8 8 9 7 6 6 6 5 5 6 5 5 5 4 4 4 5 4 4 4 3
8 6 7 9 7 9 11 1 8 5 3 7 12 15 6 3 5 11 16 19 16 13 16 14 16 18 17 20 19 7 5 11 14 16 15 12 13 15 15 14 9 9 9 10 13 12 11 9 11 12 12 13 13 11 10 13 16 6 8 9 9 9 10 9 9 8 8 7 8 7 6 7 7 6 4 5 6 6 5 5 6 5 4 3 2 2 3
4 3 4 4 8 4 9 5 2 4 8 5 8 5 4 7 6 5 7 12 11 12 15 18 20 21 18 19 18 17 12 11 15 18 12 13 15 15 13 8 8 10 9 11 13 15 12 8 9 11 13 14 12 11 13 16 7 8 9 10 10 9 9 9 9 9 8 9 7 7 8 8 8 7 6 5 5 5 5 5 5 4 3 3 3 3 3
4 8 8 8 8 13 4 9 7 7 13 7 5 5 10 12 6 3 5 7 11 12 14 14 17 17 16 18 17 15 15 12 15 17 12 9 12 13 13 14 12 12 13 13 13 12 7 8 10 11 14 14 13 13 17 5 8 8 9 9 10 9 9 9 9 8 8 8 8 7 8 8 7 7 7 6 5 5 5 6 5 5 4 5 5 5 5
7 6 8 9 8 10 5 7 6 10 15 14 11 9 10 10 9 6 4 6 9 10 11 12 13 12 12 16 17 17 20 18 15 18 20 15 15 15 14 14 10 9 13 14 14 12 9 10 11 12 12 16 14 16 9 10 10 11 10 10 10 10 10 9 9 8 8 8 8 8 8 8 9 8 8 7 7 5 6 6 6 6 6 6 6 6 5
4 7 4 2 7 13 10 5 4 9 13 12 10 11 13 9 8 3 6 6 6 9 8 11 10 12 12 14 14 17 20 14 9 14 15 10 10 12 11 10 9 11 12 13 12 12 10 9 10 9 10 9 14 11 8 9 10 10 12 12 11 11 10 9 10 10 10 9 8 8 8 7 8 8 9 8 7 7 6 6 6 6 6 5 5 5 5
7 7 6 10 11 13 14 10 8 8 5 7 7 12 16 14 9 8 7 7 6 9 10 9 11 12 10 12 15 14 12 9 11 14 16 15 14 16 17 17 11 9 9 9 11 12 13 10 10 9 8 7 6 6 11 10 11 12 13 13 12 11 11 10 9 10 11 9 8 8 8 7 6 7 7 8 8 8 7 7 7 6 6 6 6 5 6
9 7 7 10 12 16 18 13 7 9 12 16 15 13 15 13 4 6 9 4 6 6 10 13 12 13 13 13 13 14 14 13 14 14 15 16 13 14 16 15 12 11 12 14 14 14 14 11 9 9 8 8 6 8 9 11 11 12 12 13 13 13 12 10 10 10 10 10 10 8 8 8 8 8 7 7 8 9 9 9 9 8 8 8 8 8 7
10 9 11 12 11 15 18 16 6 9 13 16 20 18 16 13 7 9 9 8 12 11 15 17 15 15 14 12 15 16 14 13 14 16 17 14 16 15 12 10 10 13 14 14 15 15 14 9 10 10 9 8 7 10 11 11 13 13 12 12 11 11 11 10 10 9 9 10 9 9 8 7 6 6 8 7 6 5 5 6 8 10 9 8 8 8 7
9 12 15 13 11 14 18 20 18 14 16 17 19 16 14 11 11 13 14 14 12 12 14 15 14 17 19 18 18 15 13 14 17 18 16 11 11 11 10 9 10 12 12 15 14 14 10 9 10 11 10 9 8 9 11 12 13 14 13 12 11 11 11 10 10 10 9 9 8 8 8 7 7 4 3 3 4 6 5 4 4 4 7 6 7 6 5
13 15 16 13 13 15 18 19 15 12 11 12 17 18 17 18 18 16 15 16 16 16 15 12 13 16 19 21 21 12 11 16 16 13 10 10 10 11 8 8 9 11 11 10 9 9 9 10 10 10 10 9 10 10 12 12 13 13 13 12 10 10 11 11 11 11 9 9 8 8 7 8 7 7 6 4 5 1 4 5 6 6 6 3 6 7 5
16 16 16 12 12 15 17 20 22 19 7 8 12 15 16 18 18 16 17 17 17 17 17 16 13 15 17 17 15 13 14 13 11 11 9 10 10 8 8 12 12 12 10 9 12 14 9 9 10 9 9 9 10 10 11 12 12 12 13 13 13 12 11 10 11 10 9 9 9 9 8 8 8 8 8 7 2 3 3 7 6 6 6 6 7 7 6
17 17 16 16 16 16 16 18 21 15 5 8 10 13 15 15 16 14 14 14 13 16 17 18 17 15 15 18 13 12 11 9 7 7 7 6 7 7 9 8 9 13 15 15 11 7 8 9 9 9 10 9 9 10 11 12 12 13 13 12 12 11 11 11 11 11 10 10 10 10 11 11 10 9 10 9 10 7 2 3 4 6 7 7 7 7 6
21 19 16 11 9 13 13 15 22 22 10 10 10 11 14 14 17 14 14 15 16 15 16 18 18 19 15 15 14 8 6 9 7 3 5 7 7 6 8 16 18 13 8 6 7 8 9 10 10 9 10 9 10 10 10 11 12 12 12 11 11 11 12 13 12 11 11 11 11 11 9 9 9 9 8 8 7 7 8 6 3 3 2 4 7 7 7
16 18 17 17 19 20 20 21 23 26 13 7 11 14 16 15 15 16 16 16 16 17 17 18 18 17 11 8 11 8 9 8 3 5 7 8 10 15 15 9 5 6 7 8 8 9 11 11 10 10 11 10 9 9 10 11 11 11 11 10 8 8 10 10 10 11 10 10 9 9 9 9 9 8 8 7 7 8 8 9 8 8 6 1 1 5 4
13 12 14 18 21 23 24 24 25 26 23 17 13 14 17 17 15 14 15 16 14 13 13 13 13 12 13 12 7 8 5 6 9 9 7 12 14 7 4 6 6 6 6 6 6 7 9 10 10 11 10 8 9 9 10 11 12 12 11 10 9 9 9 10 8 8 8 9 8 9 9 8 7 6 6 7 7 6 5 4 5 5 2 2 1 2 1
16 17 16 17 19 20 19 18 18 20 21 14 11 12 15 17 17 17 18 19 19 18 16 14 11 12 13 12 7 9 10 9 9 9 13 11 5 4 4 5 5 5 6 5 4 6 8 9 10 11 10 8 8 9 9 11 11 11 11 10 10 9 10 10 9 8 7 7 7 7 6 7 7 7 7 7 6 6 6 6 5 3 4 3 1 1 3
24 23 18 14 12 12 14 15 17 18 18 15 13 14 16 19 19 19 19 20 19 19 18 17 12 9 10 10 9 11 12 13 14 11 5 4 4 4 5 5 6 4 4 5 9 9 10 10 11 12 11 9 10 10 10 10 10 10 10 9 9 9 9 9 9 9 8 8 8 9 8 7 7 7 7 7 7 7 7 6 6 6 6 4 4 6 6
20 18 20 20 21 22 24 26 25 24 23 19 16 16 18 18 20 21 22 21 19 17 15 13 10 10 7 10 13 10 7 6 6 6 6 6 6 7 8 10 12 13 15 16 14 12 11 10 9 9 7 9 10 10 11 11 10 10 9 8 7 9 11 11 8 8 8 8 8 8 8 8 8 8 8 8 7 7 7 7 6 6 6 6 6 7 4
19 20 21 19 18 21 22 23 23 25 25 24 21 21 20 21 21 23 21 19 17 16 15 10 7 10 10 4 1 4 6 5 3 4 6 7 8 8 9 10 6 4 0 4 8 10 9 8 10 6 6 8 8 9 10 10 10 10 10 9 9 9 11 13 8 8 8 7 8 8 8 9 8 8 8 8 8 8 8 8 7 7 7 7 6 5 3
12 16 18 20 20 18 20 21 20 21 22 23 22 20 19 18 17 18 19 16 14 11 7 8 8 5 2 4 5 5 4 2 1 3 5 8 8 8 8 6 3 1 4 6 8 9 10 10 6 5 5 5 6 7 8 9 9 9 9 9 8 9 9 9 9 9 8 8 8 8 8 8 8 8 8 8 8 8 8 8 7 7 6 6 5 3 3
9 14 10 4 3 11 16 18 12 11 12 11 11 12 14 14 13 14 13 10 8 8 9 8 5 4 5 6 7 6 6 5 4 8 10 9 8 7 5 4 3 3 3 4 6 6 7 7 7 7 6 5 6 6 8 9 9 9 9 9 10 10 9 9 10 9 9 7 7 8 8 7 8 8 8 8 8 7 8 7 7 7 6 4 3 2 4
7 10 9 8 6 8 8 9 10 10 11 13 14 10 7 7 8 10 9 8 10 11 8 4 5 5 6 6 7 8 10 13 13 9 8 7 6 5 4 5 5 6 6 3 2 2 4 8 9 8 6 4 3 4 6 8 9 9 9 10 10 9 9 8 9 9 9 8 8 8 8 8 7 6 7 8 7 7 8 7 7 7 7 7 6 5 6
7 8 7 7 7 7 8 9 9 10 10 12 12 12 12 11 10 9 9 10 7 5 3 4 5 6 7 8 8 9 12 12 7 6 7 7 6 6 7 8 8 7 6 4 4 3 2 5 8 10 8 7 5 3 4 7 8 9 10 10 9 9 8 8 7 7 7 8 8 7 7 8 8 7 7 7 7 7 8 7 7 7 7 7 7 7 6
5 7 7 8 7 8 8 8 8 8 9 10 10 12 13 11 9 9 7 8 8 7 5 3 4 6 9 9 8 5 4 3 3 5 6 6 6 8 10 10 9 11 8 8 4 2 2 0 5 10 8 7 7 5 4 7 7 8 9 9 9 9 9 9 8 8 7 7 8 8 9 8 7 7 7 7 8 7 7 7 7 7 7 6 6 7 7
8 5 6 6 7 8 9 8 8 9 9 10 9 9 9 9 10 9 8 6 6 6 5 4 5 3 2 3 5 6 5 4 5 7 9 10 8 9 8 10 10 9 11 9 5 5 2 1 3 6 7 8 8 7 7 8 9 8 8 9 9 9 9 9 8 7 8 7 7 8 8 8 8 7 6 6 7 7 7 7 7 7 6 6 6 6 7
7 6 5 5 5 6 7 7 6 6 5 7 8 8 7 7 9 8 8 6 4 5 4 3 3 5 5 6 5 5 6 6 7 9 10 9 7 9 6 3 2 2 3 6 8 5 5 4 1 3 6 7 9 8 9 10 10 8 8 8 9 9 9 8 9 8 7 7 7 7 8 7 7 8 7 6 7 7 7 8 7 7 7 7 7 7 6
7 6 7 6 5 5 5 6 5 5 5 5 6 7 8 8 7 6 6 5 4 4 3 2 4 5 6 6 6 7 6 7 8 9 9 8 9 12 9 7 6 4 7 8 7 6 7 7 6 4 3 4 7 8 7 9 9 7 8 8 8 8 8 8 9 9 8 8 9 8 8 7 7 7 7 7 7 7 6 7 7 7 6 6 6 5 6
8 8 7 6 5 4 5 5 5 4 5 6 6 7 6 6 7 4 4 5 5 3 2 2 2 2 3 5 7 8 7 7 8 9 9 10 11 7 10 7 2 3 3 4 4 5 6 6 7 7 5 3 5 6 8 9 8 7 7 8 8 9 9 9 8 9 8 9 8 8 8 8 8 8 7 7 6 6 6 6 6 5 5 5 5 4 4
9 8 8 7 5 5 5 5 5 4 6 6 7 8 8 7 5 5 5 4 4 5 6 7 6 5 7 9 9 10 10 9 9 8 6 4 6 9 13 4 2 2 7 7 7 6 6 6 5 6 7 5 4 7 8 7 7 7 7 7 7 8 8 8 8 8 7 7 7 8 7 7 8 8 7 7 6 6 6 7 6 5 6 6 6 5 4
9 8 7 6 6 6 5 4 4 4 4 6 8 8 8 8 7 6 5 6 6 6 7 7 7 8 8 9 11 13 10 8 10 11 13 10 10 5 6 7 5 5 8 6 6 5 6 6 6 5 6 7 6 9 9 7 7 7 7 7 7 8 7 8 8 8 8 8 8 7 7 7 8 7 7 6 5 6 8 6 4 4 4 4 3 4 3
8 6 6 6 6 6 6 5 5 5 6 7 8 9 9 9 9 9 7 7 8 8 7 7 7 8 7 7 9 7 5 4 5 4 8 7 8 9 6 4 5 7 9 6 6 6 5 5 5 8 10 11 11 10 7 6 7 7 7 7 7 7 8 8 7 8 8 8 8 7 7 7 7 6 6 6 5 5 7 6 4 4 4 4 4 3 3
9 8 8 7 7 6 6 6 6 6 5 5 8 10 10 10 10 11 11 11 10 10 10 9 9 8 7 7 7 6 6 5 4 5 9 9 11 5 3 5 6 6 7 8 7 6 6 6 8 11 10 11 11 10 6 6 7 7 7 7 7 7 7 9 10 11 10 10 9 9 7 9 9 9 7 8 6 5 5 4 4 4 4 3 4 3 3
11 10 9 10 9 9 8 6 5 4 5 8 11 11 11 10 10 11 15 15 13 11 10 9 9 9 8 8 8 9 9 9 9 9 8 5 4 5 6 6 6 7 9 10 8 7 7 9 12 11 12 12 12 9 7 10 8 8 11 12 12 9 9 8 8 6 6 7 6 5 5 5 5 5 5 4 4 5 5 5 4 4 3 3 3 3 3
10 11 12 10 10 9 10 9 7 9 9 11 10 7 8 11 9 7 10 15 16 13 13 14 11 11 11 9 6 6 7 7 9 10 9 9 11 10 8 8 8 7 6 5 5 5 5 8 8 10 12 12 11 6 6 6 7 7 6 6 6 5 5 6 6 6 6 6 6 6 6 6 5 5 5 5 5 4 4 4 4 3 3 3 3 4 4
9 9 10 13 12 11 9 10 10 10 9 9 6 6 7 9 10 10 9 10 12 13 12 11 10 10 13 13 10 8 5 7 12 8 7 8 8 7 7 6 6 9 10 10 12 10 12 11 11 10 10 11 7 6 6 6 6 6 6 5 5 5 5 5 5 5 5 5 5 5 5 5 5 4 4 4 4 4 3 4 4 3 3 4 4 3 3
9 9 8 10 11 12 10 8 8 7 6 7 7 6 6 7 9 9 10 11 13 9 9 9 11 9 9 11 9 7 11 13 9 8 4 5 6 8 7 7 9 8 7 7 7 7 10 11 11 11 11 9 6 6 6 6 5 5 5 5 5 4 4 4 5 5 5 5 5 5 5 5 5 5 4 4 4 3 4 3 3 4 4 4 3 3 3
6 5 6 6 6 7 7 6 6 6 5 6 6 6 6 6 8 7 6 7 7 8 8 7 7 7 7 7 8 9 9 11 12 10 8 8 8 7 6 6 6 9 8 7 8 7 8 10 9 9 8 6 6 5 5 6 5 5 5 5 5 5 5 5 6 6 5 4 5 5 4 4 4 4 4 4 4 3 3 3 4 3 4 3 3 3 3
5 5 4 5 5 5 7 6 5 5 5 6 5 6 5 6 6 6 6 6 5 6 6 6 7 8 7 7 8 8 9 9 10 10 8 7 6 7 7 6 6 6 7 7 7 6 6 6 6 6 6 6 6 6 5 5 5 5 5 5 5 5 5 4 4 4 4 4 4 4 4 4 4 4 4 3 3 3 3 3 3 3 3 3 3 3 2
7 5 5 4 3 4 5 6 8 6 6 6 6 6 6 6 6 6 7 10 7 6 5 7 10 8 7 6 7 7 7 9 9 8 7 7 5 5 6 7 6 6 6 6 5 6 6 6 7 6 6 6 6 6 6 7 5 5 5 5 4 4 5 4 4 4 4 4 4 4 4 3 3 3 3 3 3 3 2 3 3 3 2 2 2 2 2
Wind_Direction
214 219 194 172 168 186 191 209 223 228 223 218 215 219 226 206 217 223 210 212 231 250 244 194 209 198 202 209 209 211 204 215 187 163 203 217 221 230 231 233 230 230 233 233 237 235 232 228 227 227 226 230 233 239 235 228 208 211 182 177 182 183 184 198 205 189 188 199 197 221 226 223 217 199 194 197 194 182 190 203 205 212 216 210 199 207 234
219 216 213 186 185 189 197 200 210 222 229 227 225 228 228 226 231 244 252 241 239 247 254 219 213 209 208 219 210 118 230 231 195 198 215 222 228 222 224 225 224 222 223 231 233 230 230 220 222 219 221 221 215 214 220 215 208 204 159 186 176 182 189 194 179 175 174 177 186 194 214 221 224 224 221 213 211 212 203 200 202 195 178 172 219 223 200
230 223 214 205 207 207 221 214 215 211 215 227 228 234 237 244 256 262 260 254 254 251 253 241 175 207 210 224 221 221 221 217 215 217 223 224 226 227 229 238 235 227 227 232 243 236 228 219 215 210 214 215 209 216 216 207 206 195 182 179 185 183 197 184 170 165 161 169 164 195 205 211 202 198 211 196 199 204 206 195 195 194 185 192 192 185 182
240 213 211 210 214 214 221 223 212 216 214 221 219 227 224 217 223 227 240 250 255 263 256 163 186 192 195 210 222 233 242 218 217 228 234 225 220 228 236 241 250 236 220 228 228 228 225 220 215 208 212 209 195 217 208 208 201 178 182 184 186 192 190 179 179 186 190 179 186 200 177 203 201 198 186 190 196 192 173 173 192 159 184 202 195 195 190
224 206 195 205 210 222 235 220 211 210 215 213 212 219 221 222 220 226 228 238 235 242 241 118 219 205 200 210 210 216 225 230 229 232 236 237 213 222 234 247 246 234 220 215 217 219 220 216 211 216 199 182 209 210 202 202 165 182 189 188 188 191 190 189 197 198 203 212 217 208 204 182 178 169 178 183 185 175 200 199 141 162 204 188 207 197 187
214 196 182 191 203 219 221 199 203 202 209 210 214 217 220 222 212 225 227 238 249 256 253 238 247 226 208 214 219 206 209 222 231 238 238 237 232 227 233 239 241 237 227 225 224 219 211 210 209 207 184 195 211 201 184 163 177 187 187 194 192 194 187 192 191 192 193 195 200 202 188 171 155 157 162 204 185 156 131 123 158 180 165 188 182 180 194
260 119 150 192 223 228 215 249 205 207 212 209 213 222 223 221 217 227 240 246 248 244 242 247 253 248 241 220 213 224 225 220 222 231 231 227 225 226 230 238 239 232 225 219 222 226 229 223 214 174 200 218 184 159 175 179 185 181 191 191 200 195 195 191 186 189 185 183 185 187 183 175 171 180 186 165 149 151 148 154 161 177 177 184 190 173 173
256 180 172 225 232 158 328 171 173 201 211 218 219 239 237 225 215 213 223 230 239 248 251 249 248 254 247 267 246 233 223 213 218 222 230 229 223 225 227 229 235 227 221 219 215 217 216 204 199 193 205 189 172 191 170 184 182 192 190 194 201 194 199 192 189 183 175 178 178 173 172 172 179 188 179 177 181 164 129 114 115 119 115 129 152 148 137
241 241 211 233 348 349 239 187 205 143 184 199 197 217 229 224 222 217 230 241 247 249 246 246 233 66 22 293 267 240 196 204 231 224 225 223 220 221 227 225 235 228 220 221 219 213 202 196 190 203 198 174 178 160 173 186 181 190 195 207 207 198 196 188 184 177 173 173 174 171 170 172 183 183 180 177 163 153 138 149 147 151 156 151 155 157 165
174 286 293 289 232 230 227 220 187 186 199 203 203 209 245 225 218 213 218 231 237 238 240 243 86 50 11 274 264 243 155 197 223 234 240 238 236 234 232 230 234 234 226 225 227 208 209 199 202 196 179 173 170 173 182 177 177 193 198 216 210 198 194 179 174 172 172 169 169 170 170 180 185 186 172 154 160 167 161 163 166 168 158 136 149 160 168
144 270 286 272 260 257 216 216 200 216 232 148 73 215 249 233 198 210 216 228 237 237 238 113 136 201 249 253 254 105 167 200 210 224 230 228 231 235 229 219 223 224 217 210 212 205 205 208 212 187 175 170 168 184 181 180 186 193 210 213 196 194 187 168 164 167 166 167 169 171 177 186 180 171 171 169 156 153 151 152 156 151 149 138 124 113 130
219 200 229 251 263 278 274 2 359 204 136 136 127 218 233 241 204 214 214 229 237 243 150 146 194 203 234 245 257 165 183 193 206 215 230 229 230 237 236 231 227 219 209 197 203 197 203 217 207 175 169 173 183 183 188 169 185 208 216 207 184 165 159 164 168 167 167 169 172 174 182 175 166 166 153 146 158 159 158 153 151 155 153 152 150 157 153
220 208 244 266 267 274 271 266 246 181 155 130 187 220 236 297 156 218 217 236 243 246 206 193 222 225 231 252 203 184 204 198 224 226 227 223 218 226 233 230 217 207 201 195 201 202 207 210 182 172 170 177 188 193 176 176 202 215 197 153 160 164 161 166 172 172 171 173 171 177 173 166 161 157 165 160 157 159 156 154 149 153 160 159 154 160 165
213 202 217 232 250 244 253 216 155 176 142 203 211 220 201 154 206 206 206 226 230 218 220 221 231 243 242 246 253 239 200 207 224 233 231 233 237 234 233 228 201 208 203 208 217 222 223 198 179 172 173 180 193 185 179 199 213 171 145 157 153 162 168 171 171 169 169 168 169 164 156 150 154 167 172 162 164 162 158 158 159 157 152 144 123 92 59
206 191 212 248 254 276 223 152 106 181 202 236 239 276 305 264 235 216 235 227 228 216 225 226 229 239 244 252 250 250 239 229 240 247 234 222 229 235 235 236 206 192 201 211 216 219 213 189 177 181 175 185 190 189 194 212 170 144 151 151 156 161 166 167 169 168 167 163 161 157 160 166 164 164 160 158 157 153 151 146 141 135 129 116 109 105 94
176 187 194 210 204 240 168 144 183 199 216 240 241 235 250 252 246 212 230 241 229 225 225 229 238 239 244 252 259 257 256 239 241 252 247 232 238 238 233 225 211 190 205 209 216 223 204 189 185 183 181 189 194 189 210 165 137 142 148 151 151 158 166 167 163 166 163 161 159 162 164 161 159 154 156 155 150 155 151 147 146 145 146 146 145 151 156
184 193 213 224 234 246 216 204 201 199 213 221 230 233 238 247 251 219 240 245 248 238 237 239 240 247 235 243 247 247 249 243 230 241 243 223 224 229 231 231 215 192 207 213 217 218 203 192 193 193 194 190 188 199 195 138 151 153 151 151 154 163 166 166 165 161 158 163 164 164 164 160 156 157 153 155 153 160 155 155 158 160 167 170 172 170 165
255 251 219 226 247 254 247 253 218 212 224 232 232 241 254 242 246 188 212 249 279 281 252 239 247 238 239 242 247 249 253 255 245 244 254 245 230 236 239 240 217 207 211 217 212 210 206 199 198 200 204 189 186 200 139 152 150 154 151 154 160 165 166 164 164 159 158 160 162 162 161 163 162 161 160 164 162 162 165 168 167 164 169 172 170 168 173
216 250 218 238 245 251 253 231 249 272 269 252 227 242 250 252 237 238 221 212 244 260 275 257 253 260 252 249 253 259 276 266 251 247 244 242 222 220 225 226 210 207 201 205 208 206 208 201 194 196 195 208 188 134 159 156 158 157 160 160 160 162 166 165 160 164 162 165 161 160 163 161 162 163 163 163 161 166 172 169 166 166 167 171 173 176 183
219 251 228 235 237 248 258 251 218 226 245 252 246 231 243 251 260 247 256 220 245 257 268 263 255 250 252 255 260 262 262 260 258 254 247 241 234 226 222 221 202 202 197 201 205 204 209 194 188 183 185 187 164 152 151 157 155 158 161 165 164 167 166 165 167 168 166 159 160 161 169 167 163 165 171 170 169 174 178 175 169 172 171 179 184 183 185
238 255 259 258 266 269 266 260 208 208 224 238 247 245 249 255 254 254 251 225 236 241 249 257 260 262 253 241 253 260 264 262 261 258 254 240 230 227 219 217 194 200 201 206 209 201 204 180 177 177 182 171 162 159 159 157 160 161 165 162 161 161 163 161 167 168 164 166 166 164 165 169 168 167 168 172 173 185 205 186 178 171 177 189 191 192 181
230 230 232 226 237 251 254 254 247 228 228 237 251 255 254 254 251 244 247 253 243 241 249 252 257 263 271 270 267 258 257 260 264 265 259 244 231 231 222 213 209 211 210 205 199 199 194 171 175 176 174 169 165 161 157 161 164 164 161 160 161 167 168 168 165 164 163 166 164 162 164 160 151 116 47 142 179 175 187 220 209 209 179 183 188 173 176
239 236 238 232 235 249 258 266 260 241 229 225 236 245 247 250 247 246 246 251 256 255 253 244 242 252 260 263 264 262 259 260 261 262 253 235 226 225 203 190 210 212 214 208 205 199 184 171 176 175 170 167 163 165 165 167 169 165 160 162 167 167 169 175 174 168 163 161 162 161 160 156 151 148 132 57 41 103 173 173 180 177 186 166 159 172 170
248 250 249 234 227 234 249 255 259 262 233 208 231 237 239 242 244 243 241 241 244 251 254 253 241 242 254 259 264 259 260 264 269 263 246 236 228 218 196 199 198 197 202 203 202 203 180 173 172 170 167 170 170 167 168 168 169 165 169 169 172 176 175 168 164 165 162 159 158 160 162 160 159 155 152 145 118 47 148 175 169 169 169 162 169 173 173
240 238 241 243 247 250 253 264 271 273 207 206 222 239 241 245 246 241 242 245 240 239 249 254 254 245 242 258 252 243 251 268 271 267 268 248 230 200 206 209 207 202 205 202 196 176 168 172 169 173 172 176 169 168 170 169 168 169 174 176 172 170 169 163 165 162 161 164 168 168 168 168 169 169 166 169 167 161 66 66 160 178 174 173 172 171 154
239 251 256 256 261 260 267 276 272 268 238 212 225 244 247 242 245 242 239 237 242 240 239 245 250 254 243 248 258 233 234 248 260 244 232 227 220 215 211 212 212 205 196 180 173 170 168 172 170 169 176 177 176 172 168 167 170 172 173 177 176 174 170 168 165 168 171 173 175 177 177 174 171 169 172 168 160 149 147 131 86 47 16 187 184 181 182
235 242 252 265 263 262 255 252 259 262 249 213 226 241 250 251 243 242 243 242 239 239 240 240 239 248 255 229 244 221 208 227 191 205 213 221 220 217 218 215 201 192 179 173 176 176 170 167 169 176 183 176 171 166 165 164 164 165 168 166 166 164 161 167 174 174 173 173 172 170 169 170 167 166 162 155 149 161 170 169 169 170 175 188 201 174 169
246 239 224 234 243 246 250 250 255 265 269 260 247 247 254 254 252 252 254 256 258 253 247 244 244 244 246 244 217 240 212 197 207 214 205 221 225 224 221 202 187 170 174 182 180 167 168 173 175 178 181 169 167 168 165 163 162 163 164 164 164 164 166 169 168 172 172 173 170 171 170 162 152 142 138 144 155 162 153 145 146 152 150 189 240 327 121
249 247 238 237 245 254 261 264 263 263 265 258 243 241 247 251 249 248 250 251 253 253 251 250 235 228 234 244 205 223 220 215 212 211 220 225 199 181 185 168 161 148 149 163 170 178 176 177 180 182 182 163 164 166 164 161 161 161 162 166 165 167 171 174 172 168 164 160 162 156 143 135 139 141 143 144 143 143 143 147 149 145 154 146 90 93 28
244 247 251 255 259 262 265 265 264 265 266 263 254 249 246 248 251 251 250 252 252 251 250 248 243 230 222 230 223 218 218 215 215 220 211 175 163 151 155 148 118 104 118 159 191 190 193 191 187 188 179 165 166 165 161 162 159 159 160 164 168 170 172 165 161 156 155 158 152 143 142 143 142 142 144 147 148 146 144 145 147 146 139 148 150 162 163
257 255 254 254 256 260 262 264 266 266 267 266 259 257 254 249 247 250 250 250 250 250 252 248 242 242 223 218 226 219 223 224 213 191 169 164 161 169 171 172 172 183 193 197 186 183 189 191 190 193 166 162 165 165 162 160 154 150 149 150 149 148 147 150 152 153 153 149 151 149 145 145 147 147 149 146 141 139 144 140 139 138 137 140 150 162 182
261 255 251 250 248 250 254 257 258 260 261 262 260 255 251 249 245 243 244 246 246 244 246 251 244 238 243 262 245 209 214 204 176 164 166 169 176 180 189 204 242 292 9 138 156 171 179 183 196 184 144 166 165 166 160 154 152 154 159 152 147 148 152 149 144 148 149 148 143 143 149 148 151 150 144 150 152 149 143 138 143 145 148 151 161 178 177
251 258 256 248 247 250 256 256 253 256 257 257 254 251 248 246 246 245 242 242 248 250 248 244 241 236 185 164 174 182 183 149 130 171 187 192 188 184 191 203 239 199 161 165 168 168 170 179 169 112 153 171 171 165 159 153 152 148 146 146 143 142 144 147 141 138 138 144 152 154 153 150 147 147 150 144 140 139 137 140 142 146 153 159 161 179 165
239 240 268 328 311 258 256 264 277 290 290 289 282 270 262 254 243 240 242 241 240 246 244 243 224 176 161 163 169 164 148 145 194 219 212 200 189 180 165 151 130 116 108 118 139 154 149 135 129 145 150 176 176 166 158 151 145 142 143 142 141 143 142 144 144 142 144 148 149 144 140 140 142 144 142 143 141 138 138 138 139 137 130 120 131 151 160
284 283 289 281 273 264 269 272 283 284 291 294 291 295 295 290 277 269 273 252 231 236 235 203 182 167 156 158 168 180 187 202 216 210 198 184 166 136 115 96 74 71 74 65 96 118 126 130 136 135 136 151 171 174 160 149 143 139 143 140 140 138 139 141 146 151 148 145 139 137 136 136 135 131 132 134 135 134 131 131 134 133 127 122 109 96 80
294 292 292 284 274 279 284 280 277 275 276 278 282 288 286 286 293 289 277 273 292 286 235 206 176 157 167 176 189 194 205 217 212 175 166 158 147 137 130 119 113 91 75 53 17 0 4 119 130 136 136 138 139 161 163 148 140 138 138 135 134 131 132 131 128 121 128 135 134 130 127 127 125 127 131 126 125 124 127 129 132 129 130 129 124 106 88
290 285 285 279 281 281 279 275 269 271 269 272 283 288 288 292 283 283 299 299 292 269 239 188 171 182 196 195 188 191 203 191 154 142 141 132 137 131 135 131 122 139 132 140 182 89 353 3 140 134 131 133 132 144 155 147 137 135 130 130 130 132 132 129 130 128 129 125 126 126 125 122 118 122 124 125 126 125 125 126 124 121 117 116 105 104 91
296 283 279 280 286 287 283 282 284 279 279 282 276 272 281 291 296 301 292 289 289 286 257 206 195 196 167 130 136 148 139 124 134 134 140 144 156 128 132 142 154 150 163 175 117 91 80 108 160 136 135 129 133 139 142 139 129 129 125 126 128 128 128 128 127 126 127 127 127 128 129 128 129 123 116 112 115 119 120 116 116 116 110 100 96 94 99
300 291 283 287 286 279 285 291 295 293 299 296 301 301 300 307 301 304 297 296 304 302 271 217 129 125 155 160 156 126 125 130 133 140 141 140 154 146 127 41 15 11 47 86 111 109 113 124 312 94 121 119 125 125 133 132 128 124 125 125 126 128 128 130 131 129 126 127 124 123 117 118 116 121 119 118 116 111 109 112 114 112 109 110 106 106 102
305 303 303 303 290 294 294 285 291 303 309 307 309 305 314 314 306 300 296 306 307 311 285 234 173 168 167 157 134 130 128 129 135 138 139 132 112 97 88 64 35 38 106 120 123 131 129 124 118 106 38 78 125 128 130 131 127 123 127 126 126 124 125 125 125 126 127 126 121 119 116 118 116 115 117 117 115 112 115 112 110 107 106 102 101 106 101
312 313 310 303 298 309 297 302 299 311 327 336 337 327 323 318 313 308 315 314 314 324 345 314 260 172 149 130 118 112 105 101 108 115 123 123 124 142 127 106 62 32 86 101 107 114 121 128 131 133 124 73 63 120 120 121 119 118 121 121 123 125 127 129 129 131 134 132 131 129 129 125 120 117 117 114 112 111 110 107 108 105 109 109 108 103 95
318 325 313 315 313 317 315 316 315 325 341 341 332 332 336 334 340 324 328 330 352 14 25 26 38 87 103 106 107 105 97 102 102 93 91 108 153 154 115 87 112 88 103 101 98 98 102 106 102 116 122 119 102 114 116 115 115 116 116 116 118 120 121 122 121 120 116 116 118 120 118 121 122 122 119 117 115 112 108 99 91 94 81 85 85 96 100
335 327 331 326 324 324 325 331 342 338 339 355 349 338 346 351 344 349 2 13 27 35 50 59 69 78 99 110 111 91 75 86 84 92 75 51 43 34 87 116 114 105 106 99 101 100 98 93 71 76 105 110 111 111 104 98 106 110 111 112 115 115 115 117 120 122 121 122 122 122 125 127 128 127 123 113 100 106 105 108 109 107 108 100 102 95 84
335 340 336 335 341 344 346 348 358 7 18 4 359 6 13 13 4 6 14 29 37 40 46 52 58 62 73 92 105 89 72 75 90 95 98 85 69 50 45 78 102 108 105 106 99 100 99 94 92 100 100 104 105 102 104 102 107 107 107 109 109 111 114 113 114 118 120 120 119 123 124 123 119 106 106 111 110 106 98 94 99 99 99 100 97 95 94
349 359 0 6 4 7 4 11 14 21 23 30 32 30 25 26 28 34 46 46 43 42 43 44 43 43 45 56 63 71 75 62 51 113 119 116 100 81 60 83 97 98 94 101 98 91 84 87 98 100 99 97 96 97 89 92 102 102 104 104 106 105 104 102 97 90 81 91 88 92 83 77 89 94 93 96 102 96 101 102 99 101 106 103 109 101 107
347 357 15 30 25 21 19 18 15 17 39 55 54 41 36 36 45 49 55 55 49 43 37 35 40 44 53 68 72 70 64 59 46 34 30 48 81 109 108 94 96 94 90 88 88 86 77 79 87 90 91 92 94 89 77 69 61 81 76 77 76 75 85 92 84 85 85 89 93 93 92 95 89 81 82 77 85 95 102 105 101 101 100 104 101 114 113
353 358 2 23 37 36 34 37 44 50 45 44 44 32 17 23 33 43 56 62 66 65 62 55 45 42 38 37 48 73 81 74 54 35 45 62 72 73 63 62 70 69 62 69 67 68 75 62 64 81 87 86 85 71 74 77 71 70 71 76 71 66 74 77 85 87 86 86 87 86 93 85 81 92 90 95 101 104 108 114 111 117 117 120 121 130 127
10 12 14 18 24 26 33 40 41 31 28 33 24 31 30 37 38 45 48 56 63 65 61 59 57 49 50 52 52 41 45 91 95 52 38 61 61 59 56 52 62 76 75 72 69 62 60 66 67 64 76 84 78 67 68 76 77 76 78 80 86 85 82 87 89 89 91 88 97 94 92 98 97 92 95 108 108 114 115 115 124 127 128 135 138 140 146
28 30 28 34 33 32 27 26 23 19 17 3 8 36 35 49 51 46 46 48 47 36 38 39 42 45 53 49 48 50 45 24 69 99 57 25 62 79 69 50 37 38 51 67 65 61 55 59 60 61 66 75 65 64 65 69 71 75 72 76 82 81 75 77 86 98 97 94 99 102 101 98 113 120 117 116 120 110 116 124 127 126 131 135 131 153 148
21 25 28 21 18 17 12 12 19 10 344 360 15 18 16 37 53 36 37 40 47 57 48 28 26 22 32 34 44 41 50 69 70 68 61 44 44 58 63 62 58 54 55 71 71 65 48 48 51 51 48 59 58 63 65 66 67 75 81 76 75 82 85 85 81 80 86 94 91 92 108 111 100 108 117 105 106 121 117 120 125 141 152 155 155 163 166
12 30 39 41 40 30 19 23 15 1 7 360 355 25 27 38 47 35 15 28 36 43 47 40 31 23 8 27 41 45 52 58 66 66 66 60 56 53 52 58 54 54 54 59 61 61 54 53 53 47 51 49 59 64 66 69 69 67 72 80 79 90 96 93 92 91 91 98 105 98 102 117 118 106 117 135 124 122 137 139 130 150 146 150 162 174 175
22 20 13 23 49 61 48 30 20 19 15 10 8 18 28 44 57 48 41 29 28 26 15 57 55 14 11 19 30 31 36 57 66 63 59 63 58 63 58 56 66 57 46 47 50 55 58 54 51 42 50 63 64 68 67 68 71 70 72 78 90 81 73 78 102 106 99 94 110 120 106 98 118 126 112 109 135 143 132 149 151 152 160 172 164 175 180